星链-35076 (STARLINK-35076)

导读 | 豆包AI

STARLINK-35076是美国于2025年9月3日发射的星链系列卫星,归属SpaceX公司的星链互联网星座项目。星链计划旨在通过数千近地轨道卫星,为全球提供高速低延迟宽带互联网服务,该卫星的成功发射,进一步扩充了星链星座的在轨卫星规模。

基本信息
目录编号:
65457
目录名称:
STARLINK-35076
国际标识:
2025-194Z
轨道中心:
EARTH
卫星名称:
星链-35076
卫星全名:
星链-35076 (STARLINK-35076)
卫星状态:
在轨 (已飞行238 天)
发射日期:
2025-09-03 UTC
国别 :
美国 (US)
星等 :
--
轨道信息
数据来源 国际轨道数据 AOE轨道数据
星历时间 2026-04-29T10:55:45+0800
5小时前
查看轨道信息
2026-04-28T05:00:00+0800
1天前
查看轨道信息
半长轴 6927.639km 6927.637km
偏心率 0.0003036 0.0002394
轨道倾角 97.561° 97.567°
近地点辐角 81.606° 83.720°
升交点赤经 334.025° 332.803°
平近点角 278.551° 1.222°
近地点 547.398km 547.841km
远地点 551.606km 551.159km
周期 95.640分钟 95.640分钟
每日圈数 15.05653 15.056539
详细信息
固有亮度:
5
最大亮度:
2.5
卫星平台:
Starlink V1.0
覆盖范围:
全球
运营商:
太空探索技术公司
运营商所在国:
美国
制造商(研发单位):
太空探索技术公司
制造商所在国:
美国
使用方式:
暂无
卫星简介
Starlink 计划是 SpaceX 推出的全球卫星互联网项目,通过发射低轨道卫星,为全球尤其是偏远地区提供高速、低延迟的互联网服务。自 2019 年起,Starlink 已部署数千颗卫星,旨在缩小全球数字鸿沟,推动互联网普及。该项目还为军事、航空等行业提供通信支持,带来广泛经济效益。
2D轨道图
3D轨道图
轨道高度分析图
轨道倾角分析图
轨道综合分析图
查看轨道综合分析图